Zurück zum Katalog

COSMOS 2407

AktivNavigationPO
NORAD 28380·PAYLOAD·🇷🇺 Russia

Gestartet Jul 22, 2004 von Plesetsk Cosmodrome

Loading…

Nächste Überflüge (nächste 24 Stunden)

TLE

AktuellSource: Space-Track

Epoche: Sep 14, 2026, 13:07 UTC

1 28380U 04028A   26257.54667625  .00000056  00000-0  41764-4 0  9995
2 28380  82.9648   8.6410 0039207   4.5214   6.5715 13.76340179112173

Verfolge COSMOS 2407 in Echtzeit mit AllMySat

Download on the App Store